www.pogodaiklimat.ru

Погода и климат >> Архив погоды >> Россия >> Вологодская область >> Тотьма


АРХИВ ПОГОДЫ в Тотьме

Время (UTC), дата Ветер
(напр.,м/с)
 
Видим.   Явления Облачность Т
(С)
Тd
(С)
f
(%)
Тe
(С)
Тes
(С)
Комфортность P
(гПа)
Po
(гПа)
Тmin
(С)
Tmax
(С)
R
(мм)
R24
(мм)
S
(см)
00 14.08 ЮВ 2 4000 м дождь 10/8 270 м
[Frnb As op]
+12.0 +11.1 94 +11 +11 1011.2 995.1
03 14.08 ЮВ 2 10 км слаб. дождь 10/8 300 м
[Frnb As op]
+11.6 +10.7 94 +10 +10 1010.4 994.3 +11.6 8
06 14.08 ЮВ 2 10 км слаб. дождь 10/8 400 м
[Frnb As op]
+12.6 +11.1 91 +12 +12 1009.4 993.4 +11.5
09 14.08 Ю 2 10 км слаб. морось {дождь} 10/8 480 м
[Sc Ac As]
+13.8 +12.4 91 +13 +14 1009.8 993.9
12 14.08 Ю 1 10 км {морось} 10/8 450 м
[Sc Ac As]
+14.2 +12.5 90 +14 +15 1010.6 994.7
15 14.08 Ю 1 10 км слаб. дождь 10/8 300 м
[Frnb As op]
+14.5 +13.5 94 +15 +15 1011.4 995.5 +14.8 1
18 14.08 Ю 1 10 км местами туман поземный {дождь} 10/5 600 м
[Sc Ac trans Cs]
+13.3 +12.4 94 +13 +13 1012.1 996.1
21 14.08 Ю 1 2000 м туман поземный 10/10 210 м
[St]
+13.2 +12.6 96 +13 +13 1012.6 996.6
00 15.08 Ю 1 500 м туман 10/10 210 м
[St]
+13.3 +12.7 96 +13 +13 1012.1 996.1
03 15.08 Ю 1 500 м туман 10/10 210 м
[St]
+13.1 +12.5 96 +13 +13 1011.9 995.9 +11.6 0.3
06 15.08 ЮВ 2 10 км слаб. дождь {туман} 10/8 240 м
[Frnb As op]
+14.5 +13.9 96 +14 +14 1010.3 994.4
09 15.08 ЮВ 3 10 км {дождь} 10/8 270 м
[Frnb As op]
+15.5 +14.0 91 +15 +15 1007.1 991.3
12 15.08 Ю 4 10 км слаб. дождь 10/8 330 м
[Frnb As op]
+16.0 +14.9 93 +15 +15 1004.1 988.4
15 15.08 З 5
{10}
10 км {ливн. осадки, дождь} 9/5 300 м
[Cb cap Ac trans]
+17.4 +14.9 85 +17 +17 1005.5 989.8 +18.0 3
18 15.08 З 3
{12}
10 км {ливн. осадки, дождь} 6/5 300 м
[Cb cap Ac trans]
+14.2 +12.1 87 +13 +13 1009.9 994.0
21 15.08 ЮЗ 2 10 км 3/0
[Ac trans]
+10.9 +10.1 95 +9 +9 1012.8 996.6
00 16.08 ЮЗ 1 500 м туман 10/10 210 м
[St]
+9.6 +9.0 96 +9 +9 1014.2 997.9
03 16.08 ЮЗ 1 2000 м дымка {туман} 10/10 210 м
[St]
+9.9 +9.3 96 +9 +9 1014.9 998.6 +9.5
06 16.08 Ю 2 10 км {туман} 9/5 600 м
[Sc Ac trans Ci fib]
+13.3 +11.8 91 +13 +14 1015.2 999.1
09 16.08 З 4 10 км 8/5 600 м
[Cu med, cong Ac trans Ci fib]
+18.9 +9.8 55 +19 +22 1014.2 998.4
12 16.08 СЗ 3 10 км 8/4 600 м
[Cu med, cong Ac trans Ci fib]
+20.6 +9.8 50 +23 +25 комфорт 1014.7 999.0
15 16.08 СЗ 2 10 км 8/4 600 м
[Cu med, cong Ac trans Ci fib]
+19.6 +9.6 52 +21 +22 комфорт 1014.7 999.0 +21.2
18 16.08 штиль 0 10 км 6/0
[Ci fib]
+11.8 +10.7 93 +11 +11 1016.2 1000.0
21 16.08 штиль 0 1000 м ясно +8.7 +7.9 95 +8 +8 1017.3 1000.9
00 17.08 штиль 0 500 м туман ясно +6.7 +6.1 96 +6 +6 1018.3 1001.8
03 17.08 штиль 0 10 км {туман} 3/0
[Ci fib]
+8.1 +7.5 96 +7 +8 1019.0 1002.6 +5.5
06 17.08 штиль 0 10 км {туман} ясно +18.5 +11.7 65 +19 +27 1019.2 1003.4
09 17.08 СЗ 2 10 км 5/5 600 м
[Cu med, cong]
+20.7 +8.5 45 +23 +28 комфорт 1019.3 1003.6
12 17.08 С 2 10 км 6/4 1000 м
[Cu med, cong Ci fib]
+19.7 +7.2 44 +21 +25 комфорт 1019.0 1003.2
15 17.08 В 1 10 км 5/3 1000 м
[Sc diur, vesp Ac trans Ci fib]
+20.9 +5.6 37 +23 +24 комфорт 1018.7 1003.0 +22.4
18 17.08 СВ 1 10 км 5/3 600 м
[Sc Ac trans Ci fib]
+12.9 +8.9 77 +13 +13 1019.6 1003.4
21 17.08 штиль 0 10 км 3/0
[Ci fib]
+9.9 +8.3 90 +9 +9 1019.6 1003.3
00 18.08 штиль 0 10 км 3/0
[Ci fib]
+10.0 +8.1 88 +9 +9 1019.6 1003.3
03 18.08 СВ 3 10 км 10/3 600 м
[Sc Ac trans Cs]
+11.0 +8.0 82 +9 +9 1019.3 1003.0 +9.0
06 18.08 В 2 10 км 8/3 600 м
[Sc Ac trans Ci fib]
+16.0 +9.9 67 +16 +19 1018.6 1002.6
09 18.08 В 3 10 км 10/5 300 м
[Sc Ac trans]
+18.2 +11.2 64 +19 +20 1017.8 1002.0
12 18.08 В 5-10
{10}
10 км 10/6 700 м
[Sc Ac As]
+17.0 +10.7 66 +16 +17 1017.9 1002.0
15 18.08 В 3 10 км в посл. час ливневой дождь 10/8 600 м
[Cb cap Ac As]
+15.1 +13.3 89 +14 +14 1017.3 1001.3 +19.5 0.3
18 18.08 В 2 10 км {ливн. осадки} 10/6 360 м
[Frnb Ac As]
+14.6 +12.8 89 +14 +14 1016.9 1000.9
21 18.08 В 2 10 км 10/8 240 м
[Frnb Ac As]
+14.6 +13.1 91 +14 +14 1016.0 1000.0
00 19.08 В 1 10 км в посл. час морось 10/10 210 м
[St]
+14.4 +13.6 95 +15 +15 1016.0 1000.0
03 19.08 В 2 4000 м слаб. морось 10/10 210 м
[St]
+14.7 +14.1 96 +14 +14 1015.1 999.1 +14.4 0.0
06 19.08 В 1 10 км {морось} 10/8 270 м
[Frnb Ac As]
+16.1 +15.4 96 +17 +17 1015.3 999.4
09 19.08 В 1 10 км 10/8 480 м
[Sc Ac trans]
+18.7 +15.1 80 +21 +22 комфорт 1014.8 999.1
12 19.08 ЮЗ 1 10 км 10/8 420 м
[Sc Ac trans]
+18.5 +15.6 83 +20 +21 1015.3 999.5
15 19.08 ЮВ 1 10 км 6/3 600 м
[Cb cap Ac trans]
+19.4 +16.1 81 +22 +23 комфорт 1015.6 999.9 +19.5 0.3
18 19.08 штиль 0 10 км местами туман поземный 5/3 600 м
[Cb cap Ac trans]
+14.5 +13.5 94 +14 +14 1016.7 1000.7
21 19.08 СЗ 1 1000 м дымка ясно +12.4 +11.9 97 +12 +12 1017.3 1001.2
00 20.08 штиль 0 1000 м дымка {туман} ясно +12.7 +12.1 96 +12 +12 1018.0 1001.9
03 20.08 штиль 0 500 м туман 10/10 210 м
[St]
+14.4 +13.8 96 +14 +14 1019.0 1002.9 +11.8
06 20.08 Ю 2 10 км {туман} 9/5 600 м
[Sc Ac trans]
+16.1 +15.5 96 +16 +18 1019.4 1003.4
09 20.08 Ю 2 10 км 5/5 600 м
[Cu med, cong]
+21.7 +16.0 70 +25 +30 комфорт 1019.1 1003.5
12 20.08 Ю 2 10 км 5/3 600 м
[Cu med, cong Ac trans Ci fib]
+25.1 +14.6 52 +28 +31 жарко 1018.8 1003.3
15 20.08 Ю 1 10 км 8/4 1000 м
[Sc Ac trans Ci fib]
+23.2 +15.6 62 +27 +28 душно 1018.9 1003.3 +25.5
18 20.08 штиль 0 10 км 10/4 300 м
[Cb cap Ac trans]
+17.9 +16.6 92 +18 +18 1019.8 1003.9
21 20.08 З 2 10 км 10/4 300 м
[Cb cap Ac trans]
+18.5 +17.0 91 +20 +20 1019.9 1004.1

 

Местоположение метеостанции Тотьма (Вологодская область, Россия): широта 59.88 долгота 42.75 высота над уровнем моря 136 м.

В архиве по умолчанию представлена погода в Тотьме за последнюю неделю. Архивные данные за месяц целиком и за предыдущие месяцы, начиная с января 2011 года, Вы можете получить, выбрав интересующий диапазон дат из раскрывающегося списка и нажав кнопку "Ввод!".


*Определитесь, кто Вы:
робот инопланетянин человек

Внимание! Время в таблицах - всемирное. Для получения местного времени необходимо прибавить поправку, которая равна 3 ч.

Смотрите также архив погоды в соседних городах и на ближайших метеорологических станциях:

Погода в Нюксенице (Вологодская область, Россия) (101 км)
Погода в Чухломе (Костромская область, Россия) (126 км)
Погода в Вельске (Архангельская область, Россия) (139 км)
Погода в Шангалах (Архангельская область, Россия) (143 км)
Погода в Кологриве (Костромская область, Россия) (148 км)
Погода в Вожеге (Вологодская область, Россия) (156 км)
Погода в Никольске (Вологодская область, Россия) (157 км)
Погода в Галиче (Костромская область, Россия) (168 км)
Погода в Вологде (Вологодская область, Россия) (170 км)
Погода в Буе (Костромская область, Россия) (171 км)

Пояснения к столбцам:

Ветер - указаны скорость ветра в м/с - средняя за 10 мин, порывы в срок и между сроками (в фигурных скобках) и направление, откуда дует ветер: С - северный, СВ - северо-восточный, В - восточный, ЮВ - юго-восточный, Ю - южный, ЮЗ - юго-западный, З - западный, СЗ - северо-западный.
Видимость - горизонтальная дальность видимости в метрах или километрах. При видимости от 1 до 10 км при отсутствии осадков обычно наблюдается дымка, при ухудшении видимости до 1 км и менее - туман. В сухую погоду видимость может ухудшаться дымом, пылью или мглою.
Явления - указаны атмосферные явления, наблюдавшиеся в срок или в последний час перед сроком; фигурными скобками обозначены явления, наблюдавшиеся между сроками (за 1-3 часа до срока); квадратными скобками обозначены град или гололедные отложения с указанием их диаметра в мм.
Облачность - указаны через наклонную черту общая и нижняя облачность в баллах и высота нижней границы облаков в метрах; квадратными скобками обозначены формы облаков: Ci - перистые, Cs - перисто-слоистые, Cc - перисто-кучевые, Ac - высококучевые, As - высокослоистые, Sc - слоисто-кучевые, Ns - слоисто-дождевые, Cu - кучевые, Cb - кучево-дождевые. Подробнее классификацию облаков см. в Атласе облаков (PDF).
T - Температура воздуха - температура, измеренная на высоте 2 м над землей.
Td - Температура точки росы - температура, при понижении до которой содержащийся в воздухе водяной пар достигнет насыщения.
f - Относительная влажность воздуха - влажноcть воздуха, измеренная на высоте 2 м над землей.
Te - Эффективная температура - температура, которую ощущает одетый по сезону человек в тени. Характеристика душности погоды. При расчете учитывается влияние влажности воздуха и скорости ветра на теплоощущения человека.
Tes - Эффективная температура на солнце - температура, которую ощущает человек, с поправкой на солнечный нагрев. Характеристика знойности погоды. Зависит от высоты солнца над горизонтом, облачности и скорости ветра. Ночью, в пасмурную погоду, а также при ветре 12 м/с и более поправка равна нулю.
P - Атмосферное давление - приведенное к уровню моря атмосферное давление.
Po - Атмосферное давление - измеренное на уровне метеостанции атмосферное давление.
Tmin - Минимальная температура - минимум температуры воздуха на высоте 2 м над землей.
Tmax - Максимальная температура - максимум температуры воздуха на высоте 2 м над землей.
R - Количество осадков - Количество выпавших осадков за период времени, мм. При наведении курсора мыши на число - период времени, за который выпало указанное количество осадков.
R24 - Количество осадков - Количество выпавших осадков за 24 часа, мм.
S - Снежный покров - Высота снежного покрова, см. При наведении курсора мыши на число - состояние снежного покрова и степень покрытия местности в баллах.